Location: Sternwarte Stuttgart
(48.7670°N, 9.1830°E)
Time: 01:01:52
(UTC+01:00)

Cosmos 1766 Rocket - Pass Details

Date: 24 January 2019
Orbit: 605 x 633 km, 82.5° (Epoch: 19 February)

Event Time Altitude Azimuth Distance (km) Brightness Sun altitude
Rises 07:01:16 0° 344° (NNW) 2,940 6.7 -10.2°
Reaches altitude 10° 07:03:36 10° 338° (NNW) 2,026 5.8 -9.9°
Maximum altitude 07:07:50 43° 268° (W) 889 4.0 -9.2°
Drops below altitude 10° 07:12:02 10° 197° (SSW) 1,999 6.2 -8.5°
Sets 07:14:20 0° 190° (S) 2,897 7.1 -8.2°
